Location: Pettit
(39.0209°N, 79.7181°W)
Time: 12:35:12
(UTC+00:00)

ISS - Pass Details

Date: 24 April 2026
Orbit: 414 x 424 km, 51.6° (Epoch: 11 May)

Event Time Altitude Azimuth Distance (km) Brightness Sun altitude
Exits shadow 08:10:06 32° 11° (N) 738 -2.1 -24.3°
Drops below altitude 10° 08:12:20 10° 40° (NE) 1,501 0.1 -23.9°
Sets 08:14:31 0° 48° (NE) 2,370 1.5 -23.6°
